OPS 4682 DEB, 14048

Orbit data source: Space-Track

OPS 4682 DEB, 14048 is space debris in LEO originally from a launch on Sat, 03 Apr 1965 UTC launched from the Air Force Western Test Range (AFWTR). Debris objects in space refer to the collection of defunct objects orbiting the Earth. Examples of debris include non-operational satellites, rocket bodies, and fragments generated from explosions, collisions, or faulty payload assembly.

Loading next visibility...
Identifier
14048, 1965-027K
Orbit
LEO
Country
Flag of USUS
Related business
Manufacturer
Unknown
Mission
Spacecraft
Bus & Motor
Unknown
Mass
Unknown
Launch date (UTC)
1965-04-03 (61 years ago)
Launch vehicle
Unknown
Launch site
Air Force Western Test Range (AFWTR)
Object type
Payload
Rocket body
Debris
Shape & HBR
Unknown shape, 0.1 m
Radar Cross Section
Medium (>0.1 m² and <1 m²)

Expand to show TLE details & history
Last TLE update: 9 hours ago

TLE from 9 hours ago
0 OPS 4682 DEB
1 14048U 65027K   26150.57920914 -.00000460  00000-0 -15711-2 0  9997
2 14048  90.2488  14.4157 0015323 331.5428  56.4799 12.99235373 51428
Epoch: 2026-05-30T13:54Z
TLE epoch observation values (Epoch: 2026-05-30T13:54:03.669Z)
Latitude
28.20798°
Longitude
-82.32558°
Altitude
1,262.103 km
Speed
7.23 km/s
True Right ascension
00h 57m 07s
True Declination
28° 04' 28"
Sunlit
Object was in daylight at epoch
Visualization orbit readout
Latitude
Unknown
Longitude
Unknown
Altitude
Unknown
Speed
Unknown
Apparent Right ascension
Unknown
Apparent Declination
Unknown
Sunlit
N/A
Visualization observer readout
Local Sidereal Time
08:23:28
Azimuth
Unknown
Elevation
Unknown
Doppler factor
Unknown
Orbital elements
Apogee altitude
1,273.919 km
Perigee altitude
1,250.505 km
Semi-major axis
7,640.349 km
Eccentricity
0.00153
Inclination
90.2488°
RAAN
14.4157°
Arg. of periapsis
331.5428°
True anomaly
56.62644°
Mean anomaly
56.4799°
Eccentric anomaly
56.55316°
Mean motion
3.24993 °/min
Orbital period
110.77 mins
BSTAR
-0.0015711
Loading maneuver chart data...
Computing Atmospheric mass density...
Loading historical data...
Loading historical data...
Loading historical data...
Loading historical data...
Loading historical data...
Loading historical data...
Loading historical data...

Documentation

Showing up to 5 results
|